Location: Lac Lasalle
(46.0398°N, 74.1576°W)
Time: 12:20:30
(UTC-04:00)

ISS - Pass Details

Date: 21 March 2019
Orbit: 408 x 410 km, 51.6° (Epoch: 20 April)

Event Time Altitude Azimuth Distance (km) Brightness Sun altitude
Rises 19:58:19 0° 198° (SSW) 2,323 0.1 -9.1°
Reaches altitude 10° 20:00:56 10° 175° (S) 1,466 -1.2 -9.6°
Maximum altitude 20:03:03 16° 135° (SE) 1,154 -2.0 -9.9°
Enters shadow 20:04:00 15° 115° (ESE) 1,223 -2.0 -10.1°
